Regional Weather Roundup
Issued by NWS

Home | Current Version | Previous Version | Graphics & Text | Print | Product List | Glossary On
Versions: 1 2 3 4 5 6 7 8 9 10 11 12 13 14 15 16 17 18 19 20 21 22 23 24 25 26 27 28 29 30 31 32 33 34 35 36 37 38 39 40 41 42 43 44 45 46 47 48 49 50
000
ASUS43 KDMX 281107
RWRIA

WEATHER ROUNDUP FOR IOWA
NATIONAL WEATHER SERVICE DES MOINES IA
500 AM CST SAT FEB 28 2015

NOTE: "FAIR" INDICATES FEW OR NO CLOUDS BELOW 12,000 FEET WITH NO
SIGNIFICANT WEATHER AND/OR OBSTRUCTIONS TO VISIBILITY.

* - THESE STATIONS ARE NOT NWS STATIONS...THUS NOT UNDER NWS
QUALITY CONTROL.  THEY ALSO DO NOT REPORT WEATHER SUCH
AS PRECIPITATION OR FOG.

IAZ001>003-012>014-020>022-031>034-043>046-281200-
   NORTHWEST IOWA

CITY           SKY/WX    TMP DP  RH WIND       PRES   REMARKS
CARROLL *      CLEAR     -4  -9  77 S6        30.50S WCI -16
CHEROKEE *     PTCLDY    -4  -8  84 S6        30.47S WCI -16
DENISON *      PTCLDY     3  -2  78 CALM      30.47S
LE MARS *      CLEAR     -4  -8  84 CALM      30.45F
ORANGE CITY *  CLEAR      1  -4  78 SE3       30.41F
SHELDON *      CLEAR     -4  -8  84 S8        30.42S WCI -19
SIOUX CITY     CLEAR      2  -3  80 E8        30.46S WCI -12
SPENCER        PTCLDY    -3  -9  75 S9        30.45S WCI -19
STORM LAKE *   CLEAR     -4  -9  77 S10       30.46S WCI -21
$$

IAZ055>058-069>071-079>083-090>094-281200-
   SOUTHWEST IOWA

CITY           SKY/WX    TMP DP  RH WIND       PRES   REMARKS
ATLANTIC *     CLEAR     -2  -8  78 CALM      30.50S
AUDUBON *      CLEAR     -8 -13  77 CALM      30.49S
CLARINDA *     CLEAR      7   3  85 S3        30.54R
COUNCIL BLFS * CLEAR      7   1  78 SE8       30.46S WCI  -6
CRESTON *      CLEAR      1  -4  78 SE7       30.50S WCI -11
HARLAN  *      CLEAR     -2  -4  92 CALM      30.53S
LAMONI         CLOUDY     6   0  76 E5        30.52S WCI  -3
RED OAK *      PTCLDY     7   1  78 CALM      30.51S
SHENANDOAH *   PTCLDY     7   1  78 CALM      30.52R
$$

IAZ047>049-059>061-072>074-084-281200-
   CENTRAL IOWA

CITY           SKY/WX    TMP DP  RH WIND       PRES   REMARKS
AMES             N/A     -8 -13  78 CALM      30.56R
ANKENY *       CLEAR     -6 -11  77 CALM      30.58R
CHARITON *     CLOUDY     1  -6  71 SE7       30.55S WCI -11
DES MOINES     CLEAR      3  -4  72 SE7       30.56R WCI  -9
GRINNELL*      MOCLDY    -8 -11  84 SE5       30.57S WCI -19
KNOXVILLE *    CLEAR      0  -9  65 SE6       30.56R WCI -12
MARSHALLTOWN   PTCLDY   -10 -13  86 SE6       30.56S WCI -23
PELLA *        PTCLDY    -4  -6  92 SE6       30.59S WCI -16
PERRY *          N/A     -2  -6  84 SE3       30.54R
$$

IAZ004>006-015-016-023>025-035-036-281200-
   NORTH CENTRAL IOWA

CITY           SKY/WX    TMP DP  RH WIND       PRES   REMARKS
ALGONA *       CLEAR     -8 -11  84 S8        30.51R WCI -23
CLARION *      CLEAR     -8 -13  77 S9        30.53R WCI -25
ESTHERVILLE    CLEAR    -11 -14  86 S8        30.47R WCI -28
FORT DODGE *   PTCLDY    -6 -11  77 CALM      30.52S
MASON CITY     PTCLDY   -16 -20  82 S6        30.53S WCI -31
FOREST CITY *  CLEAR    -15 -22  70 SE3       30.52R
IOWA FALLS *     N/A    -13 -17  84 SE5       30.55R WCI -25
$$

IAZ007>011-017>019-026>030-037>042-050>054-066-281200-
   NORTHEAST IOWA

CITY           SKY/WX    TMP DP  RH WIND       PRES   REMARKS
CEDAR RAPIDS   PTCLDY   -11 -14  86 SE3       30.60R
CHARLES CITY * CLEAR     -8 -13  77 SE8       30.56S WCI -23
CLINTON *      PTCLDY   -18 -26  69 E3        30.66S
DECORAH *      CLEAR     -8 -13  77 SW5       30.56R WCI -19
DUBUQUE        PTCLDY   -12 -18  74 CALM      30.59R
MONTICELLO *   CLEAR    -26 -35  62 CALM      30.63R
OELWEIN *      CLEAR     -9 -15  77 SE7       30.58R WCI -24
WATERLOO       MOCLDY   -20 -24  82 CALM      30.60R
$$

IAZ064-065-067-068-078-281200-
   EAST CENTRAL IOWA

CITY           SKY/WX    TMP DP  RH WIND       PRES   REMARKS
DAVENPORT      PTCLDY   -10 -15  78 SE6       30.65R WCI -23
IOWA CITY      MOCLDY   -10 -14  82 CALM      30.65S
MT. PLEASANT * MOCLDY    -8 -11  84 E6        30.63S WCI -21
MUSCATINE *    MOCLDY   -15 -20  76 CALM      30.68R HAZE
QUAD CITIES    PTCLDY   -16 -24  67 CALM      30.66S
$$

IAZ062-063-075>077-085>089-095>099-281200-
   SOUTHEAST IOWA

CITY           SKY/WX    TMP DP  RH WIND       PRES   REMARKS
BURLINGTON     CLOUDY     2  -4  76 E5        30.63S WCI  -8
FAIRFIELD *    CLOUDY    -4 -11  71 E7        30.61S WCI -18
FORT MADISON * CLOUDY     1  -4  78 E6        30.63S WCI -10
KEOKUK *       CLOUDY     7   0  72 E7        30.63R WCI  -5
OSKALOOSA *      N/A     -6  -9  84 SE8       30.60R WCI -21
CENTERVILLE *  CLOUDY     5   0  78 E5        30.57S WCI  -4
OTTUMWA        PTCLDY    -3  -9  75 E6        30.59R WCI -15
WASHINGTON *   PTCLDY    -9 -11  92 E7        30.63R WCI -24
$$

ABBREVIATIONS USED IN REMARKS
   TC - TEMPERATURES IN CELSIUS
  WCI - WIND CHILL INDEX
   HX - HEAT INDEX
  VSB - VISIBILITY
$$



USA.gov is the U.S. government's official web portal to all federal, state and local government web resources and services.